SCP
-0 -0 -0 0 -0 -0 0 0 0 -0 0 0 -0 0 0 -0 -0 -0 0 0 0 0 -0 -0 -0 -0 -0 0 -0 -0 -0 -0 -0 -0 -0 -0 -0 -0 -0 -0 -0 -0 -0 -0 -0 -0 -0 -0 -0
-0 -0 0 0 0 0 -0 -0 -0 0 -0 -0 -0 -0 -0 -0 -0 -0 -0 0 -0 0 -0 -0 -0 -0 0 0 0 -0 -0 -0 0 0 -0 -0 -0 -0 -0 -0 -0 -0 -0 -0 -0 -0 -0 -0 0
-0 0 0 -0 0 -0 -0 -0 0 -0 -0 -0 -0 -0 0 -0 -0 -0 -0 -0 -0 0 0 0 0 -0 0 0 0 -0 -0 0 0 0 0 0 0 0 -0 -0 -0 -0 0 -0 -0 -0 -0 0 0
0 -0 -0 -0 -0 0 -0 0 -0 -0 -0 -0 -0 -0 -0 -0 -0 -0 -0 -0 -0 -0 0 0 0 0 0 -0 -0 -0 -0 0 0 0 0 0 0 0 0 0 -0 0 0 0 0 0 -0 0 0
-0 -0 0 -0 -0 0 -0 -0 -0 -0 -0 -0 -0 -0 -0 0 -0 -0 -0 -0 -0 -0 0 0 0 -0 -0 -0 -0 -0 0 0 0 0 0 0 0 0 0 0 -0 -0 -0 -0 0 0 0 0 0
0 0 0 -0 0 -0 0 0 -0 -0 -0 -0 -0 -0 -0 -0 -0 -0 -0 -0 -0 -0 0 0 0 0 -0 0 0 0 0 0 0 0 0 0 0 0 0 0 0 0 0 0 0 0 0 0 0
0 0 0 -0 0 -0 0 0 0 -0 -0 -0 -0 -0 -0 -0 -0 0 -0 -0 -0 -0 -0 -0 -0 0 0 0 0 0 -0 -0 -0 0 -0 0 0 0 0 0 0 0 0 0 0 0 0 0 0
0 0 0 0 0 0 0 -0 0 0 0 -0 -0 -0 -0 -0 0 0 -0 -0 -0 -0 -0 0 -0 -0 -0 -0 0 0 0 -0 -0 -0 -0 -0 -0 0 0 0 0 0 0 0 0 0 0 0 0
-0 0 0 0 -0 0 0 0 0 0 0 -0 -0 -0 -0 0 0 0 -0 -0 -0 -0 0 0 -0 -0 -0 -0 0 0 -0 -0 0 -0 -0 0 -0 0 0 0 0 0 0 0 0 -0 -0 -0 -0
0 -0 0 0 0 -0 -0 0 -0 0 0 0 -0 -0 -0 0 0 -0 -0 -0 -0 0 0 0 0 -0 0 -0 -0 -0 -0 -0 -0 -0 0 0 0 0 0 0 -0 0 0 0 0 -0 -0 -0 0
-0 0 0 0 0 0 0 -0 -0 -0 -0 0 -0 -0 0 0 0 -0 -0 -0 -0 0 0 0 0 0 -0 -0 -0 -0 -0 -0 -0 0 0 0 0 0 0 -0 0 -0 0 -0 0 0 0 0 0
0 -0 -0 -0 -0 -0 0 -0 -0 0 0 -0 -0 -0 -0 -0 0 -0 -0 -0 0 0 0 0 0 0 -0 -0 -0 -0 -0 -0 -0 0 0 0 -0 0 0 -0 -0 0 0 0 0 0 0 0 0
-0 -0 0 -0 -0 -0 -0 -0 0 -0 -0 -0 -0 -0 -0 0 0 0 -0 -0 0 -0 -0 -0 -0 0 -0 -0 0 -0 -0 -0 -0 0 0 0 0 0 0 0 0 0 -0 0 0 0 0 0 0
-0 -0 0 -0 -0 0 -0 -0 -0 0 0 -0 -0 -0 0 0 0 -0 -0 -0 -0 -0 -0 -0 -0 -0 0 0 -0 0 -0 0 0 0 0 0 0 0 0 0 0 0 -0 0 0 0 -0 0 0
0 0 0 0 -0 -0 -0 -0 -0 0 -0 -0 -0 -0 -0 0 0 -0 -0 -0 -0 -0 -0 -0 -0 0 0 0 0 0 0 0 0 0 0 0 0 0 0 0 0 -0 0 -0 0 0 0 0 0
0 0 0 0 0 -0 -0 -0 -0 0 -0 0 -0 -0 -0 0 0 -0 -0 -0 -0 -0 -0 -0 -0 0 -0 -0 0 0 0 -0 0 0 0 0 0 0 0 0 0 -0 0 0 0 0 0 -0 0
0 0 0 0 -0 0 0 0 0 0 -0 -0 -0 0 -0 0 -0 -0 -0 -0 -0 -0 -0 -0 -0 0 0 -0 -0 -0 -0 -0 0 0 0 -0 0 0 0 0 0 0 0 0 0 0 0 0 0
0 0 0 0 0 0 0 0 0 0 -0 -0 0 -0 0 0 -0 -0 -0 -0 -0 -0 -0 0 -0 -0 -0 -0 -0 -0 -0 0 -0 -0 -0 -0 0 0 0 0 0 0 0 0 -0 0 0 0 0
0 0 0 -0 0 0 0 0 0 0 0 0 0 0 0 0 -0 -0 -0 -0 -0 -0 -0 0 0 -0 0 -0 -0 -0 -0 -0 -0 0 0 0 0 0 0 0 0 -0 0 0 0 0 0 0 0
0 0 0 0 0 0 0 0 0 0 0 0 0 0 0 -0 0 -0 -0 -0 -0 -0 0 0 -0 0 0 -0 -0 -0 -0 -0 -0 -0 -0 0 0 0 -0 0 0 0 0 0 -0 -0 0 0 0
0 0 0 0 0 0 0 0 0 0 0 0 0 0 0 -0 -0 0 -0 -0 -0 -0 0 0 0 0 0 -0 -0 -0 0 -0 0 -0 -0 0 0 0 0 0 0 0 0 -0 0 -0 0 0 0
0 0 0 0 0 0 0 0 0 0 0 0 0 0 -0 0 0 -0 -0 -0 -0 -0 0 0 0 0 0 0 -0 -0 -0 -0 0 0 0 0 -0 -0 -0 -0 0 0 0 0 -0 -0 0 0 0
0 0 0 0 0 0 0 0 0 0 0 0 0 -0 -0 0 0 -0 -0 -0 -0 -0 -0 0 0 0 0 0 -0 -0 -0 -0 -0 -0 0 -0 0 -0 -0 -0 -0 0 -0 0 0 -0 -0 -0 0
0 0 0 0 0 0 0 0 0 0 0 0 -0 -0 0 0 -0 -0 -0 -0 -0 -0 0 0 0 0 0 0 0 -0 -0 -0 -0 -0 0 -0 0 -0 -0 -0 -0 -0 -0 -0 0 -0 -0 -0 0
0 0 0 0 0 0 0 0 0 0 0 -0 -0 -0 -0 -0 -0 -0 -0 -0 -0 -0 -0 0 0 0 0 0 0 -0 -0 -0 -0 0 0 0 0 -0 -0 -0 -0 -0 -0 -0 0 0 -0 -0 -0
0 0 0 0 0 0 0 0 0 0 0 0 0 -0 0 -0 -0 -0 -0 -0 -0 -0 -0 0 0 0 0 0 0 -0 -0 -0 -0 0 0 0 0 -0 -0 -0 -0 -0 -0 -0 -0 -0 -0 -0 -0
0 0 0 0 0 0 0 0 0 -0 0 0 0 0 0 0 0 0 -0 -0 -0 -0 -0 -0 0 0 0 0 0 0 -0 -0 0 0 0 0 0 0 -0 -0 -0 -0 -0 -0 -0 -0 0 -0 0
0 0 0 0 0 0 0 0 -0 -0 -0 0 0 0 0 1 1 0 0 0 -0 -0 -0 -0 -0 0 0 0 0 0 0 0 0 0 0 0 0 0 -0 -0 -0 -0 -0 -0 -0 -0 0 -0 0
0 0 0 0 0 0 0 0 -0 -0 0 0 0 0 1 0 0 0 1 0 0 0 -0 -0 -0 0 0 0 0 0 0 0 0 0 0 0 0 0 0 -0 -0 -0 -0 -0 -0 -0 -0 -0 -0
0 0 0 0 0 0 0 0 -0 0 0 0 0 0 0 0 0 1 0 0 0 0 0 -0 -0 -0 0 0 0 0 0 0 -0 0 0 0 0 0 0 -0 -0 -0 -0 -0 -0 -0 -0 -0 -0
Wind_Speed_500mb
8 21 12 7 4 5 6 9 5 24 22 37 32 29 19 13 6 10 55 68 59 51 41 37 35 33 28 24 24 24 19 17 17 17 20 24 23 26 26 25 24 23 26 25 23 24 27 30 31
18 13 9 7 3 5 6 9 5 22 37 63 61 52 33 11 28 69 66 62 54 50 44 39 36 32 27 23 21 20 19 16 15 18 21 22 24 25 24 26 27 26 35 28 26 29 30 32 35
19 16 6 5 4 6 7 11 18 39 53 47 42 38 23 32 62 63 69 60 49 51 45 42 35 31 27 23 20 18 17 17 18 21 21 24 25 24 25 29 27 30 33 30 31 29 32 36 39
17 6 9 5 15 12 11 20 40 28 54 50 44 26 43 46 49 80 72 56 54 49 45 41 36 30 27 26 23 20 19 20 21 21 23 26 25 26 26 28 30 34 34 34 33 35 36 39 44
12 4 4 8 13 14 26 38 43 22 35 54 79 32 48 48 75 77 70 51 53 45 44 41 36 31 28 26 24 23 24 24 25 25 26 25 24 25 26 28 32 33 31 32 32 34 36 41 41
13 5 5 7 7 14 8 37 35 40 47 57 62 46 29 69 71 73 65 54 44 49 47 42 36 32 30 27 26 26 27 27 27 26 26 25 25 24 23 25 30 31 33 34 34 36 39 47 42
22 4 7 17 11 21 8 31 24 40 58 43 56 33 52 76 70 71 65 51 44 48 46 43 38 35 30 28 26 27 28 27 28 29 27 27 27 27 24 23 25 30 31 32 36 39 40 46 44
32 5 4 12 17 22 19 54 34 27 21 65 76 21 54 78 66 72 65 54 42 49 44 42 37 33 33 32 28 29 28 28 32 33 32 30 30 29 29 24 25 29 31 34 39 40 41 47 43
42 9 7 9 14 12 29 15 13 18 31 59 21 76 94 86 70 73 70 66 49 39 40 38 37 36 32 30 29 30 32 34 36 35 32 29 33 29 25 25 28 30 29 33 37 41 47 47 41
27 10 12 14 12 8 12 17 42 18 19 26 43 73 80 77 77 81 80 73 47 39 35 39 38 34 32 30 32 36 40 36 32 34 34 24 21 25 22 23 31 32 32 32 29 37 45 33 33
32 21 19 14 21 10 21 45 38 17 24 38 79 93 83 81 72 71 85 65 51 39 40 36 32 41 32 36 41 36 34 29 22 23 26 21 19 18 19 30 31 29 32 30 19 24 22 39 31
24 44 29 38 15 13 6 11 10 17 25 72 99 100 96 80 70 75 76 72 48 50 52 41 41 42 34 36 34 32 29 20 15 14 13 21 21 14 14 21 25 18 24 25 18 20 41 39 28
28 27 36 45 42 23 32 23 12 28 20 62 83 90 83 72 69 67 79 64 46 62 64 53 49 42 34 25 27 27 24 23 24 15 15 11 13 18 18 12 13 20 19 17 22 24 26 29 23
39 41 35 60 48 20 18 18 36 41 11 50 83 84 71 67 73 69 73 65 57 53 72 55 49 46 35 18 20 30 21 13 16 8 6 6 16 18 26 19 18 19 17 17 18 21 29 26 24
33 17 17 19 43 31 56 29 19 54 21 37 63 74 76 73 68 75 74 68 64 65 62 57 47 46 47 37 41 31 35 32 22 11 3 10 10 20 13 15 22 34 31 27 24 22 13 21 24
16 15 11 18 17 30 51 19 29 40 50 40 47 62 75 75 64 72 72 67 67 59 59 49 43 51 46 43 43 35 28 19 26 18 5 5 9 18 19 14 19 29 22 22 21 22 20 24 23
13 11 15 23 29 19 20 26 37 68 47 39 55 60 68 69 69 72 74 68 68 56 58 47 39 55 58 52 43 34 28 25 15 11 9 13 15 18 16 14 14 17 18 17 16 24 22 30 24
16 12 15 18 24 25 21 29 34 62 64 59 54 63 56 56 61 71 77 71 69 63 58 44 43 40 61 50 49 32 34 28 19 16 16 13 17 22 20 15 24 21 15 16 27 16 11 12 17
29 27 20 19 26 16 30 30 39 57 47 42 48 13 61 55 53 69 76 75 75 69 64 55 55 47 44 63 56 42 33 32 19 18 15 11 12 19 17 20 21 16 13 21 26 18 12 11 15
31 29 28 25 21 17 29 32 31 32 22 51 62 54 39 67 67 58 78 82 81 73 67 61 59 53 43 57 58 41 29 31 20 19 22 11 6 12 14 24 19 16 18 23 15 16 14 15 9
26 19 19 21 33 18 26 13 10 12 14 28 41 52 43 57 86 65 75 85 81 77 72 68 68 59 52 44 57 44 33 31 27 29 24 18 10 14 15 13 13 13 12 18 16 23 19 19 14
16 18 20 23 16 8 8 9 22 28 20 21 28 32 57 59 76 82 77 84 86 80 74 69 72 64 58 49 57 55 48 44 38 32 30 15 16 16 9 9 14 16 15 12 20 21 11 15 12
21 20 17 12 16 11 34 5 13 19 25 36 48 66 68 104 97 92 99 86 86 84 82 78 73 74 66 58 56 59 56 48 39 36 26 27 16 17 10 5 10 17 19 17 21 16 24 14 15
11 16 18 12 5 7 22 5 5 24 39 35 59 86 96 88 108 101 95 89 87 87 87 83 77 79 76 68 62 65 62 55 43 40 39 36 24 24 26 18 9 12 18 18 18 15 22 18 13
9 6 8 7 8 12 19 16 19 44 35 38 50 81 86 78 107 102 94 91 89 91 94 90 86 80 81 75 72 67 67 62 49 43 38 45 33 25 19 25 14 13 17 19 15 16 26 24 19
14 12 10 11 8 16 18 12 20 23 51 60 74 97 78 89 107 109 107 101 96 94 95 94 92 86 81 82 81 72 68 67 57 45 43 41 28 26 25 21 15 10 17 19 12 19 23 28 25
16 15 22 11 18 16 14 16 22 30 14 51 54 52 63 74 83 97 103 102 104 100 99 100 95 89 82 80 83 83 71 73 69 55 50 40 34 31 29 33 29 21 17 22 16 17 20 26 26
8 12 6 8 7 13 14 19 10 20 39 33 39 55 53 49 65 54 44 85 110 109 105 101 99 93 85 79 84 91 83 72 75 66 59 60 47 45 32 42 40 28 23 28 26 18 20 23 19
30 14 11 4 8 19 9 16 13 40 23 33 42 64 81 41 63 88 52 45 48 95 108 107 106 99 91 82 78 87 93 82 78 78 64 62 56 51 39 34 41 32 26 29 29 27 24 23 20
27 31 4 4 15 6 4 17 32 42 42 47 56 70 78 97 100 92 82 76 51 51 93 112 111 107 99 88 82 78 88 92 86 83 77 70 62 57 35 38 42 38 31 30 34 32 32 36 30
Wind_Direction_500mb
180 123 123 190 249 233 109 206 253 116 135 143 145 108 112 78 143 160 144 158 157 151 155 152 144 141 138 128 125 135 138 127 114 103 98 98 94 95 95 87 91 100 108 113 119 124 128 124 118
154 121 189 263 227 42 267 254 176 116 120 118 109 104 86 87 102 128 138 154 159 156 157 149 143 142 139 137 132 130 130 125 116 106 104 100 99 99 91 92 88 99 106 104 105 108 117 119 119
147 192 238 231 153 177 224 162 151 115 124 121 99 93 83 114 121 135 140 153 156 155 150 143 140 143 140 132 127 125 122 120 115 112 110 103 100 95 96 94 86 94 106 110 106 108 109 116 120
151 192 247 278 254 174 246 159 105 95 101 102 99 73 108 133 130 140 144 150 150 145 144 143 144 140 134 132 129 128 127 122 122 118 110 107 99 99 97 96 94 95 96 98 98 96 104 117 117
163 222 255 247 278 159 232 136 116 109 81 99 108 121 109 128 130 132 145 148 150 148 149 147 145 143 137 133 128 129 130 129 124 120 112 105 97 94 94 96 93 102 104 99 97 100 103 120 121
208 247 267 305 360 255 140 125 133 106 117 112 109 116 118 137 138 141 147 155 157 156 151 147 146 145 139 132 128 128 127 123 120 117 111 101 92 91 92 101 100 104 100 97 93 97 103 124 121
240 159 314 317 291 261 105 128 144 123 125 130 128 116 141 144 149 150 147 161 153 158 151 147 145 142 139 137 137 130 120 119 117 115 105 98 96 96 99 102 108 104 100 96 94 95 102 121 118
223 169 303 37 2 356 317 347 113 92 104 139 131 138 153 154 152 147 154 157 160 153 150 146 144 143 137 135 131 126 120 120 115 112 109 102 95 92 89 97 110 112 109 107 102 100 112 125 123
242 266 305 17 353 233 290 295 32 91 147 165 192 160 158 157 159 155 149 152 149 149 151 144 143 141 136 133 128 123 121 119 119 125 116 104 94 84 78 91 113 114 110 112 110 117 120 121 125
224 249 279 149 132 265 272 322 300 152 175 173 127 148 154 159 162 152 150 154 152 144 144 135 130 130 131 125 121 122 124 120 124 121 92 100 102 86 90 106 114 117 110 110 110 125 110 123 115
238 237 133 144 138 249 261 295 296 199 171 203 143 152 162 163 165 154 156 157 151 148 147 142 132 129 104 129 123 118 128 121 109 105 105 104 119 87 117 113 111 118 119 107 117 129 100 132 113
227 242 162 168 98 251 249 254 261 4 326 150 152 158 164 173 173 161 162 157 150 164 160 149 145 139 125 129 122 116 115 106 128 108 123 119 140 136 137 125 123 125 120 89 120 117 114 110 111
243 242 210 181 175 184 191 235 126 317 292 158 150 158 170 176 178 163 162 155 151 171 173 155 148 139 149 144 130 132 114 118 133 126 131 191 139 103 86 145 163 136 94 124 145 129 119 113 113
251 244 241 171 199 157 127 170 141 211 161 157 154 160 171 175 175 164 161 155 157 165 169 165 161 155 156 163 180 169 148 171 180 165 144 158 123 109 105 130 119 133 126 108 118 122 132 122 115
286 300 306 184 205 146 142 199 193 156 151 170 160 162 169 183 182 167 165 162 163 163 165 167 167 167 164 162 147 147 150 162 190 194 114 10 147 136 132 117 96 98 125 122 113 131 148 133 131
294 300 257 281 216 178 157 223 147 150 141 176 172 173 175 182 189 168 170 169 168 171 172 176 182 177 170 169 159 149 176 162 172 190 233 125 126 131 113 103 84 90 126 119 123 125 125 156 154
286 234 250 253 258 216 180 129 141 149 181 185 176 193 180 186 173 172 174 173 171 184 182 184 194 187 179 178 170 158 165 177 196 189 158 114 126 133 115 104 113 122 120 153 117 138 126 135 147
249 246 229 243 250 203 214 133 155 165 166 159 193 183 190 190 175 175 178 181 178 188 188 183 189 179 187 170 171 166 170 182 176 166 132 92 92 142 129 127 155 130 123 131 140 142 146 134 137
274 281 279 270 243 191 196 147 168 171 153 149 152 181 185 196 189 178 183 184 181 188 192 190 192 196 190 171 173 163 176 191 172 177 158 111 94 160 148 140 158 127 160 149 138 140 135 148 130
256 269 281 289 282 186 138 166 167 175 143 155 167 189 224 189 201 196 180 183 184 187 192 189 193 200 200 176 173 166 175 171 172 187 162 160 157 138 128 146 148 139 145 169 153 172 149 142 120
246 243 275 277 305 318 93 89 153 185 195 171 198 181 211 212 192 200 184 184 186 187 192 191 194 200 204 192 177 170 171 175 194 183 177 178 204 172 175 156 159 182 142 171 159 180 154 143 132
263 266 268 274 316 280 46 225 202 182 174 188 169 170 222 222 213 192 188 186 189 193 194 198 198 200 204 203 187 178 180 180 193 199 194 224 193 186 186 181 164 194 180 162 165 173 161 142 137
257 285 289 299 271 332 300 22 233 162 170 189 152 138 219 234 222 196 193 194 195 197 198 200 206 205 205 206 191 185 187 189 200 195 204 197 180 180 218 275 213 175 190 172 169 177 162 181 163
246 273 297 317 329 294 270 189 141 177 199 197 181 186 197 214 196 196 194 192 194 199 200 201 205 209 210 207 199 193 190 189 195 205 206 192 201 189 206 231 215 179 192 177 185 198 187 181 170
270 319 326 316 305 250 242 278 236 202 219 195 184 195 197 177 188 192 190 191 192 197 202 203 207 212 214 210 205 197 193 189 191 204 208 201 201 198 214 213 210 207 201 198 189 193 201 196 193
245 213 180 234 233 254 247 253 269 203 203 202 194 198 197 198 188 188 190 190 193 198 204 207 209 214 216 210 206 204 197 193 192 200 208 207 214 212 208 214 213 213 225 216 214 199 207 209 211
249 241 225 261 267 285 274 283 257 267 209 194 192 200 200 194 190 188 192 191 192 198 205 211 212 214 217 213 206 206 206 195 195 195 199 206 211 220 224 227 225 226 245 232 232 225 206 205 209
308 225 256 227 239 277 286 293 249 252 252 158 163 164 179 185 177 169 181 197 196 200 206 210 217 217 218 217 211 207 210 204 199 198 202 208 209 216 239 225 223 229 251 228 228 216 211 219 217
337 297 266 255 214 246 282 281 249 6 293 184 177 167 158 164 207 182 197 210 199 201 204 209 216 217 218 219 217 212 211 211 205 204 203 203 205 216 222 207 214 225 238 234 226 227 217 218 231
304 311 18 354 294 225 153 265 26 21 3 357 181 176 174 178 190 186 190 202 233 216 206 208 214 218 220 220 219 219 216 216 212 210 210 208 208 208 209 214 216 224 232 231 231 230 225 228 242
Wind_Speed_850mb
8 21 12 7 4 5 6 9 5 24 22 37 32 29 19 13 6 10 55 68 59 51 41 37 35 33 28 24 24 24 19 17 17 17 20 24 23 26 26 25 24 23 26 25 23 24 27 30 31
18 13 9 7 3 5 6 9 5 22 37 63 61 52 33 11 28 69 66 62 54 50 44 39 36 32 27 23 21 20 19 16 15 18 21 22 24 25 24 26 27 26 35 28 26 29 30 32 35
19 16 6 5 4 6 7 11 18 39 53 47 42 38 23 32 62 63 69 60 49 51 45 42 35 31 27 23 20 18 17 17 18 21 21 24 25 24 25 29 27 30 33 30 31 29 32 36 39
17 6 9 5 15 12 11 20 40 28 54 50 44 26 43 46 49 80 72 56 54 49 45 41 36 30 27 26 23 20 19 20 21 21 23 26 25 26 26 28 30 34 34 34 33 35 36 39 44
12 4 4 8 13 14 26 38 43 22 35 54 79 32 48 48 75 77 70 51 53 45 44 41 36 31 28 26 24 23 24 24 25 25 26 25 24 25 26 28 32 33 31 32 32 34 36 41 41
13 5 5 7 7 14 8 37 35 40 47 57 62 46 29 69 71 73 65 54 44 49 47 42 36 32 30 27 26 26 27 27 27 26 26 25 25 24 23 25 30 31 33 34 34 36 39 47 42
22 4 7 17 11 21 8 31 24 40 58 43 56 33 52 76 70 71 65 51 44 48 46 43 38 35 30 28 26 27 28 27 28 29 27 27 27 27 24 23 25 30 31 32 36 39 40 46 44
32 5 4 12 17 22 19 54 34 27 21 65 76 21 54 78 66 72 65 54 42 49 44 42 37 33 33 32 28 29 28 28 32 33 32 30 30 29 29 24 25 29 31 34 39 40 41 47 43
42 9 7 9 14 12 29 15 13 18 31 59 21 76 94 86 70 73 70 66 49 39 40 38 37 36 32 30 29 30 32 34 36 35 32 29 33 29 25 25 28 30 29 33 37 41 47 47 41
27 10 12 14 12 8 12 17 42 18 19 26 43 73 80 77 77 81 80 73 47 39 35 39 38 34 32 30 32 36 40 36 32 34 34 24 21 25 22 23 31 32 32 32 29 37 45 33 33
32 21 19 14 21 10 21 45 38 17 24 38 79 93 83 81 72 71 85 65 51 39 40 36 32 41 32 36 41 36 34 29 22 23 26 21 19 18 19 30 31 29 32 30 19 24 22 39 31
24 44 29 38 15 13 6 11 10 17 25 72 99 100 96 80 70 75 76 72 48 50 52 41 41 42 34 36 34 32 29 20 15 14 13 21 21 14 14 21 25 18 24 25 18 20 41 39 28
28 27 36 45 42 23 32 23 12 28 20 62 83 90 83 72 69 67 79 64 46 62 64 53 49 42 34 25 27 27 24 23 24 15 15 11 13 18 18 12 13 20 19 17 22 24 26 29 23
39 41 35 60 48 20 18 18 36 41 11 50 83 84 71 67 73 69 73 65 57 53 72 55 49 46 35 18 20 30 21 13 16 8 6 6 16 18 26 19 18 19 17 17 18 21 29 26 24
33 17 17 19 43 31 56 29 19 54 21 37 63 74 76 73 68 75 74 68 64 65 62 57 47 46 47 37 41 31 35 32 22 11 3 10 10 20 13 15 22 34 31 27 24 22 13 21 24
16 15 11 18 17 30 51 19 29 40 50 40 47 62 75 75 64 72 72 67 67 59 59 49 43 51 46 43 43 35 28 19 26 18 5 5 9 18 19 14 19 29 22 22 21 22 20 24 23
13 11 15 23 29 19 20 26 37 68 47 39 55 60 68 69 69 72 74 68 68 56 58 47 39 55 58 52 43 34 28 25 15 11 9 13 15 18 16 14 14 17 18 17 16 24 22 30 24
16 12 15 18 24 25 21 29 34 62 64 59 54 63 56 56 61 71 77 71 69 63 58 44 43 40 61 50 49 32 34 28 19 16 16 13 17 22 20 15 24 21 15 16 27 16 11 12 17
29 27 20 19 26 16 30 30 39 57 47 42 48 13 61 55 53 69 76 75 75 69 64 55 55 47 44 63 56 42 33 32 19 18 15 11 12 19 17 20 21 16 13 21 26 18 12 11 15
31 29 28 25 21 17 29 32 31 32 22 51 62 54 39 67 67 58 78 82 81 73 67 61 59 53 43 57 58 41 29 31 20 19 22 11 6 12 14 24 19 16 18 23 15 16 14 15 9
26 19 19 21 33 18 26 13 10 12 14 28 41 52 43 57 86 65 75 85 81 77 72 68 68 59 52 44 57 44 33 31 27 29 24 18 10 14 15 13 13 13 12 18 16 23 19 19 14
16 18 20 23 16 8 8 9 22 28 20 21 28 32 57 59 76 82 77 84 86 80 74 69 72 64 58 49 57 55 48 44 38 32 30 15 16 16 9 9 14 16 15 12 20 21 11 15 12
21 20 17 12 16 11 34 5 13 19 25 36 48 66 68 104 97 92 99 86 86 84 82 78 73 74 66 58 56 59 56 48 39 36 26 27 16 17 10 5 10 17 19 17 21 16 24 14 15
11 16 18 12 5 7 22 5 5 24 39 35 59 86 96 88 108 101 95 89 87 87 87 83 77 79 76 68 62 65 62 55 43 40 39 36 24 24 26 18 9 12 18 18 18 15 22 18 13
9 6 8 7 8 12 19 16 19 44 35 38 50 81 86 78 107 102 94 91 89 91 94 90 86 80 81 75 72 67 67 62 49 43 38 45 33 25 19 25 14 13 17 19 15 16 26 24 19
14 12 10 11 8 16 18 12 20 23 51 60 74 97 78 89 107 109 107 101 96 94 95 94 92 86 81 82 81 72 68 67 57 45 43 41 28 26 25 21 15 10 17 19 12 19 23 28 25
16 15 22 11 18 16 14 16 22 30 14 51 54 52 63 74 83 97 103 102 104 100 99 100 95 89 82 80 83 83 71 73 69 55 50 40 34 31 29 33 29 21 17 22 16 17 20 26 26
8 12 6 8 7 13 14 19 10 20 39 33 39 55 53 49 65 54 44 85 110 109 105 101 99 93 85 79 84 91 83 72 75 66 59 60 47 45 32 42 40 28 23 28 26 18 20 23 19
30 14 11 4 8 19 9 16 13 40 23 33 42 64 81 41 63 88 52 45 48 95 108 107 106 99 91 82 78 87 93 82 78 78 64 62 56 51 39 34 41 32 26 29 29 27 24 23 20
27 31 4 4 15 6 4 17 32 42 42 47 56 70 78 97 100 92 82 76 51 51 93 112 111 107 99 88 82 78 88 92 86 83 77 70 62 57 35 38 42 38 31 30 34 32 32 36 30
Wind_Direction_850mb
180 123 123 190 249 233 109 206 253 116 135 143 145 108 112 78 143 160 144 158 157 151 155 152 144 141 138 128 125 135 138 127 114 103 98 98 94 95 95 87 91 100 108 113 119 124 128 124 118
154 121 189 263 227 42 267 254 176 116 120 118 109 104 86 87 102 128 138 154 159 156 157 149 143 142 139 137 132 130 130 125 116 106 104 100 99 99 91 92 88 99 106 104 105 108 117 119 119
147 192 238 231 153 177 224 162 151 115 124 121 99 93 83 114 121 135 140 153 156 155 150 143 140 143 140 132 127 125 122 120 115 112 110 103 100 95 96 94 86 94 106 110 106 108 109 116 120
151 192 247 278 254 174 246 159 105 95 101 102 99 73 108 133 130 140 144 150 150 145 144 143 144 140 134 132 129 128 127 122 122 118 110 107 99 99 97 96 94 95 96 98 98 96 104 117 117
163 222 255 247 278 159 232 136 116 109 81 99 108 121 109 128 130 132 145 148 150 148 149 147 145 143 137 133 128 129 130 129 124 120 112 105 97 94 94 96 93 102 104 99 97 100 103 120 121
208 247 267 305 360 255 140 125 133 106 117 112 109 116 118 137 138 141 147 155 157 156 151 147 146 145 139 132 128 128 127 123 120 117 111 101 92 91 92 101 100 104 100 97 93 97 103 124 121
240 159 314 317 291 261 105 128 144 123 125 130 128 116 141 144 149 150 147 161 153 158 151 147 145 142 139 137 137 130 120 119 117 115 105 98 96 96 99 102 108 104 100 96 94 95 102 121 118
223 169 303 37 2 356 317 347 113 92 104 139 131 138 153 154 152 147 154 157 160 153 150 146 144 143 137 135 131 126 120 120 115 112 109 102 95 92 89 97 110 112 109 107 102 100 112 125 123
242 266 305 17 353 233 290 295 32 91 147 165 192 160 158 157 159 155 149 152 149 149 151 144 143 141 136 133 128 123 121 119 119 125 116 104 94 84 78 91 113 114 110 112 110 117 120 121 125
224 249 279 149 132 265 272 322 300 152 175 173 127 148 154 159 162 152 150 154 152 144 144 135 130 130 131 125 121 122 124 120 124 121 92 100 102 86 90 106 114 117 110 110 110 125 110 123 115
238 237 133 144 138 249 261 295 296 199 171 203 143 152 162 163 165 154 156 157 151 148 147 142 132 129 104 129 123 118 128 121 109 105 105 104 119 87 117 113 111 118 119 107 117 129 100 132 113
227 242 162 168 98 251 249 254 261 4 326 150 152 158 164 173 173 161 162 157 150 164 160 149 145 139 125 129 122 116 115 106 128 108 123 119 140 136 137 125 123 125 120 89 120 117 114 110 111
243 242 210 181 175 184 191 235 126 317 292 158 150 158 170 176 178 163 162 155 151 171 173 155 148 139 149 144 130 132 114 118 133 126 131 191 139 103 86 145 163 136 94 124 145 129 119 113 113
251 244 241 171 199 157 127 170 141 211 161 157 154 160 171 175 175 164 161 155 157 165 169 165 161 155 156 163 180 169 148 171 180 165 144 158 123 109 105 130 119 133 126 108 118 122 132 122 115
286 300 306 184 205 146 142 199 193 156 151 170 160 162 169 183 182 167 165 162 163 163 165 167 167 167 164 162 147 147 150 162 190 194 114 10 147 136 132 117 96 98 125 122 113 131 148 133 131
294 300 257 281 216 178 157 223 147 150 141 176 172 173 175 182 189 168 170 169 168 171 172 176 182 177 170 169 159 149 176 162 172 190 233 125 126 131 113 103 84 90 126 119 123 125 125 156 154
286 234 250 253 258 216 180 129 141 149 181 185 176 193 180 186 173 172 174 173 171 184 182 184 194 187 179 178 170 158 165 177 196 189 158 114 126 133 115 104 113 122 120 153 117 138 126 135 147
249 246 229 243 250 203 214 133 155 165 166 159 193 183 190 190 175 175 178 181 178 188 188 183 189 179 187 170 171 166 170 182 176 166 132 92 92 142 129 127 155 130 123 131 140 142 146 134 137
274 281 279 270 243 191 196 147 168 171 153 149 152 181 185 196 189 178 183 184 181 188 192 190 192 196 190 171 173 163 176 191 172 177 158 111 94 160 148 140 158 127 160 149 138 140 135 148 130
256 269 281 289 282 186 138 166 167 175 143 155 167 189 224 189 201 196 180 183 184 187 192 189 193 200 200 176 173 166 175 171 172 187 162 160 157 138 128 146 148 139 145 169 153 172 149 142 120
246 243 275 277 305 318 93 89 153 185 195 171 198 181 211 212 192 200 184 184 186 187 192 191 194 200 204 192 177 170 171 175 194 183 177 178 204 172 175 156 159 182 142 171 159 180 154 143 132
263 266 268 274 316 280 46 225 202 182 174 188 169 170 222 222 213 192 188 186 189 193 194 198 198 200 204 203 187 178 180 180 193 199 194 224 193 186 186 181 164 194 180 162 165 173 161 142 137
257 285 289 299 271 332 300 22 233 162 170 189 152 138 219 234 222 196 193 194 195 197 198 200 206 205 205 206 191 185 187 189 200 195 204 197 180 180 218 275 213 175 190 172 169 177 162 181 163
246 273 297 317 329 294 270 189 141 177 199 197 181 186 197 214 196 196 194 192 194 199 200 201 205 209 210 207 199 193 190 189 195 205 206 192 201 189 206 231 215 179 192 177 185 198 187 181 170
270 319 326 316 305 250 242 278 236 202 219 195 184 195 197 177 188 192 190 191 192 197 202 203 207 212 214 210 205 197 193 189 191 204 208 201 201 198 214 213 210 207 201 198 189 193 201 196 193
245 213 180 234 233 254 247 253 269 203 203 202 194 198 197 198 188 188 190 190 193 198 204 207 209 214 216 210 206 204 197 193 192 200 208 207 214 212 208 214 213 213 225 216 214 199 207 209 211
249 241 225 261 267 285 274 283 257 267 209 194 192 200 200 194 190 188 192 191 192 198 205 211 212 214 217 213 206 206 206 195 195 195 199 206 211 220 224 227 225 226 245 232 232 225 206 205 209
308 225 256 227 239 277 286 293 249 252 252 158 163 164 179 185 177 169 181 197 196 200 206 210 217 217 218 217 211 207 210 204 199 198 202 208 209 216 239 225 223 229 251 228 228 216 211 219 217
337 297 266 255 214 246 282 281 249 6 293 184 177 167 158 164 207 182 197 210 199 201 204 209 216 217 218 219 217 212 211 211 205 204 203 203 205 216 222 207 214 225 238 234 226 227 217 218 231
304 311 18 354 294 225 153 265 26 21 3 357 181 176 174 178 190 186 190 202 233 216 206 208 214 218 220 220 219 219 216 216 212 210 210 208 208 208 209 214 216 224 232 231 231 230 225 228 242